Location: San Martino
(41.0167°N, 14.6500°E)
Time: 14:15:13
(UTC+00:00)

Daily predictions for brighter satellites

Satellite Brightness Start Highest point End
(mag) Time Altitude Azimuth Time Altitude Azimuth Time Altitude Azimuth
Cosmos 2360 Rocket 2.9 18:07:40 10° NNW 18:13:13 59° WSW 18:18:44 10° S
Cosmos 2058 Rocket 3.3 18:11:51 10° SSE 18:16:01 47° E 18:20:12 10° NNE
CZ-4 R/B 3.0 18:12:17 10° SSW 18:16:14 40° W 18:20:12 10° NNW
Cosmos 2251 Rocket 3.8 18:13:45 10° S 18:18:52 48° ESE 18:23:59 10° NNE
Cosmos 1953 Rocket 3.5 18:14:33 10° N 18:18:54 68° E 18:23:12 10° SSE
SL-4 R/B 3.4 18:15:48 10° S 18:19:05 22° SE 18:22:33 10° ENE
Cosmos 389 Rocket 4.2 18:18:24 10° SE 18:20:33 16° E 18:22:45 10° NE
Ariane Rocket 4.0 18:16:41 10° SE 18:20:57 29° ENE 18:25:15 10° N
SAR-Lupe-1 4.3 18:22:43 10° N 18:26:19 74° WNW 18:29:52 10° SSW
Cosmos 614 Rocket 4.4 18:22:01 10° S 18:26:45 39° ESE 18:31:29 10° NE
Cosmos 1455 2.2 18:23:24 10° S 18:27:04 57° E 18:30:45 10° NNE
COSMOS 2428 2.9 18:22:12 10° NNW 18:27:54 59° ENE 18:33:31 10° SE
Cosmos 2219 Rocket 2.2 18:22:36 10° NNW 18:28:18 71° ENE 18:33:57 10° SSE
Meteor 2-10 Rocket 3.7 18:23:25 10° S 18:28:39 84° W 18:34:09 10° N
Cosmos 2333 4.4 18:23:46 10° NNW 18:29:32 79° WSW 18:35:14 10° SSE
ATLAS 3B R/B 3.0 18:23:00 10° NNW 18:29:57 58° NE 18:37:06 10° SE
FALCON 9 DEB 4.2 18:28:08 10° S 18:30:25 20° SE 18:32:44 10° E
COSMOS 2487 4.1 18:29:44 10° SW 18:32:56 38° WNW 18:36:09 10° N
BREEZE-M DEB (TANK) 4.0 18:29:41 10° W 18:32:58 49° N 18:42:48 10° ENE
SL-08 RB Rocket 4.5 18:28:59 10° S 18:33:33 57° W 18:38:07 10° NNW
FALCON 9 DEB 3.7 18:33:38 10° SSW 18:36:17 28° SE 18:38:56 10° ENE
RESURS DK-1 2.7 18:33:19 10° SSW 18:37:24 69° WNW 18:41:33 10° NNE
Cosmos 1092 Rocket 4.0 18:31:44 10° N 18:38:00 75° E 18:44:09 10° SSE
BREEZE-M DEB (TANK) 4.2 18:37:14 10° NW 18:38:53 15° N 18:40:22 10° NE
Helios 1A Rocket 3.4 18:36:55 10° S 18:40:56 62° W 18:45:01 10° NNW
Cosmos 1992 Rocket 4.0 18:38:24 10° NNW 18:43:38 87° ENE 18:48:51 10° SSE
Resurs 01 Rocket 2.9 18:45:15 15° ESE 18:47:48 24° ENE 18:51:22 10° NNE
FALCON 9 DEB 3.2 18:45:49 10° SSW 18:48:41 41° SE 18:51:34 10° ENE
Resurs 1-3 4.0 18:48:24 14° SE 18:51:53 43° ENE 18:56:03 10° N
Cosmos 405 Rocket 3.1 18:52:43 10° N 18:56:35 46° ENE 18:59:06 19° SE
Hubble Space Telescope 2.9 18:57:28 10° S 18:58:57 12° S 18:59:14 12° SSE
Cosmos 2237 Rocket 2.8 18:54:21 10° N 18:59:38 39° ENE 19:03:02 20° ESE
Cosmos 1408 3.7 18:56:35 10° NNW 18:59:59 43° W 19:03:21 10° SSW
Cosmos 407 Rocket 3.8 18:57:09 10° S 19:01:58 43° ESE 19:06:50 10° NNE
Cosmos 2058 2.9 18:58:44 10° N 19:02:56 87° W 19:07:04 10° S
Cosmos 2279 Rocket 3.9 19:01:11 10° S 19:07:17 67° E 19:13:26 10° NNE
OBJECT-B 1.4 19:05:14 10° S 19:08:20 57° W 19:11:33 10° NNW
FALCON 9 DEB 2.8 19:06:07 10° SW 19:09:07 55° SE 19:10:44 24° ENE
BREEZE-M DEB (TANK) 3.4 19:08:40 10° W 19:10:56 28° SSW 19:12:59 18° SSE
Exosat Rocket 3.7 19:04:58 10° NNW 19:11:03 85° WSW 19:15:02 17° SSE
Cosmos 1356 3.3 19:07:46 10° N 19:11:10 67° E 19:12:44 29° SSE
IRIDIUM 114 4.4 19:06:32 12° SSE 19:11:19 55° E 19:16:25 10° NNE
Cosmos 2227 Rocket 2.5 19:06:48 10° S 19:12:04 41° ESE 19:17:21 10° NE
Cosmos 2084 Rocket 3.5 19:09:50 10° S 19:13:34 42° ESE 19:17:23 10° NE
Cosmos 1825 2.9 19:10:54 10° NNW 19:14:35 52° W 19:18:15 10° S
BREEZE-M DEB (TANK) 4.3 19:10:24 10° W 19:14:59 53° N 19:20:31 10° ENE
Cosmos 2026 Rocket 4.3 19:11:20 10° NNW 19:17:23 68° W 19:23:28 10° S
Cosmos 1140 Rocket 3.5 19:13:10 10° S 19:18:08 53° ESE 19:23:07 10° NNE
Cosmos 2297 Rocket 2.1 19:13:18 10° S 19:18:50 62° ESE 19:24:25 10° NNE
IRIDIUM 103 4.3 19:15:40 12° S 19:20:26 68° E 19:25:38 10° N
USA 186 4.2 19:18:59 10° SSW 19:21:40 23° W 19:24:17 10° NW
SJ-6B 3.9 19:18:55 10° S 19:22:25 39° W 19:25:58 10° NNW
Cosmos-2242 3.5 19:24:16 35° ESE 19:25:11 40° E 19:29:13 10° NNE
Cosmos 2219 3.1 19:20:50 10° S 19:26:21 65° ESE 19:31:56 10° NNE
Cosmos 2333 Rocket 3.9 19:25:47 10° NW 19:30:43 30° WSW 19:35:36 10° SSW
Genesis I 4.1 19:30:12 10° NNW 19:33:54 35° NE 19:34:32 33° ENE
Cosmos 2151 3.1 19:30:03 10° N 19:34:17 56° E 19:35:15 45° SE
Cosmos 2266 Rocket 4.2 19:29:24 10° N 19:35:36 52° ENE 19:38:12 33° SE
Cosmos 44 Rocket 4.4 19:37:37 28° E 19:37:37 28° E 19:40:49 10° NE
Cosmos 1633 2.4 19:34:09 10° N 19:37:44 65° E 19:37:56 63° ESE
SL-8 R/B 4.1 19:33:14 10° WNW 19:37:56 53° SW 19:39:29 37° SSE
IRIDIUM 106 4.3 19:33:58 13° S 19:38:42 82° W 19:43:57 10° N
ARIANE 5 R/B 3.6 19:41:00 30° ENE 19:41:09 30° ENE 19:44:58 10° N
COSMOS 2455 3.1 19:40:27 28° SSE 19:43:09 44° ESE 19:48:50 10° NE
USA 245 4.1 19:46:18 33° NE 19:46:18 33° NE 19:48:42 10° N
Cosmos 1076 Rocket 4.2 19:43:05 10° NNW 19:47:19 53° W 19:49:35 25° SSW
IGS 5A 3.3 19:47:41 55° SSE 19:48:35 89° ENE 19:52:45 10° NNW
CZ-2C R/B 3.5 19:48:12 10° NNE 19:52:39 80° ESE 19:53:53 47° S
Cosmos 1980 3.8 19:50:04 10° NNW 19:55:43 70° WSW 19:58:00 37° S
SL-16 R/B 2.8 19:50:36 10° N 19:55:56 40° ENE 19:56:59 36° E
Timation 2 Rocket 4.0 19:49:22 10° SSW 19:56:01 87° WNW 20:02:24 10° NNE
SL-4 R/B 2.5 19:54:01 10° WSW 19:58:21 67° NNW 20:03:01 10° NE
Timation 1 Rocket 4.3 19:56:23 38° SSE 19:58:28 57° ESE 20:04:18 10° NNE
Cosmos 1190 Rocket 4.1 19:53:19 10° SSW 19:58:33 76° WNW 20:03:47 10° NNE
Ariane Rocket 4.4 19:55:42 12° SSW 19:59:47 33° W 20:04:22 10° NNW
BREEZE-M (TANK) 3.6 19:48:33 10° WNW 20:04:29 74° SW 20:05:46 52° SSE
SPOT 1/Viking Rocket 3.4 20:04:57 58° SE 20:05:58 78° ENE 20:11:13 10° N
SPOT 3 Rocket 4.2 20:11:35 33° SSW 20:13:37 51° W 20:18:40 10° NNW
CARTOSAT-1 4.0 20:16:54 53° NE 20:16:54 53° NE 20:20:31 10° N
Cosmos 676 Rocket 3.9 20:15:17 50° SSW 20:16:43 87° WNW 20:21:55 10° NNE
Cosmos 1655 Rocket 4.3 20:12:22 10° NNW 20:18:34 63° W 20:21:20 33° SSW
Cosmos 1766 Rocket 3.9 20:15:12 10° N 20:18:49 57° NNE 20:18:49 57° NNE
Terra 2.9 20:20:42 33° NE 20:20:42 33° NE 20:24:15 10° N
ATLAS 3B R/B 4.1 20:14:14 10° NW 20:20:20 31° WSW 20:24:23 19° SSW
USA 215 3.5 20:18:58 41° E 20:21:06 59° NE 20:27:29 10° NW
Meteor 2-3 Rocket 4.0 20:18:11 10° NNW 20:23:51 64° W 20:25:24 46° SSW
Resurs 01 Rocket 3.1 20:22:49 26° SW 20:24:07 31° W 20:28:07 10° NNW
Meteor 1-27 4.4 20:22:43 39° SSW 20:24:55 73° W 20:30:45 10° N
SPOT 5 3.3 20:25:52 48° NE 20:25:52 48° NE 20:29:47 10° N
Okean 3 Rocket 3.8 20:20:45 10° N 20:24:41 66° N 20:24:41 66° N
ERS-1 Rocket 3.1 20:34:05 66° NE 20:34:05 66° NE 20:38:37 10° N
Cosmos 2237 Rocket 3.6 20:38:44 10° NW 20:43:30 29° WSW 20:44:52 26° SW
Cosmos 2263 Rocket 3.8 20:51:48 23° NE 20:51:48 23° NE 20:54:01 10° NE
Cosmos 2082 4.3 20:53:32 38° WSW 20:55:22 54° WNW 21:00:53 10° NNE
Lacrosse 5 rocket 4.0 20:52:54 10° NNW 20:55:23 15° NNE 20:56:01 14° NNE
Cosmos 2227 Rocket 4.0 20:51:20 10° WSW 20:56:13 29° NW 21:01:08 10° N
USA 229 DEB 4.1 21:15:18 10° NNW 21:22:32 58° NE 21:23:02 57° ENE
USA 229 4.1 21:15:23 10° NNW 21:22:38 57° NE 21:23:08 56° ENE
Cosmos 1745 Rocket 4.3 21:22:48 10° N 21:28:01 60° NNE 21:28:01 60° NNE
COSMOS 2455 4.4 21:23:51 10° WSW 21:29:12 33° NW 21:34:36 10° NNE
SL-4 R/B 4.4 21:34:53 10° WNW 21:38:43 26° NNW 21:38:43 26° NNW
S3M 4.3 21:40:09 63° N 21:40:09 63° N 21:45:27 10° N
SL-16 R/B 3.7 21:35:01 10° NW 21:38:53 28° W 21:38:53 28° W
NOSS 3-1 (A) 4.1 21:32:59 10° NNW 21:40:36 68° NE 21:41:02 67° ENE
Terra 4.1 21:59:35 19° WNW 21:59:35 19° WNW 22:01:36 10° NW
USA 215 4.3 22:06:18 33° W 22:06:18 33° W 22:10:21 10° WNW
NOSS 3-1 (C) 4.3 21:57:16 10° NW 22:04:15 61° W 22:04:15 61° W
Cosmos 1943 4.4 22:01:24 10° NNW 22:04:47 38° NNW 22:04:47 38° NNW
Cosmos 2263 Rocket 3.9 22:33:26 27° NW 22:33:26 27° NW 22:37:36 10° N
Lacrosse 5 rocket 4.4 22:31:03 10° NW 22:31:37 13° NW 22:31:37 13° NW
SeaSat 1 4.4 22:31:50 10° N 22:34:31 27° NNW 22:34:31 27° NNW
Cosmos 1844 Rocket 4.3 22:48:07 28° NNE 22:48:07 28° NNE 22:50:42 10° NNE
USA 281 4.2 22:47:12 39° NE 22:47:12 39° NE 22:52:59 10° N
Cosmos 2278 Rocket 4.0 23:33:50 23° ENE 23:33:50 23° ENE 23:36:23 10° NE
ATLAS 5 CENTAUR R/B 3.5 23:41:14 10° NNW 23:46:25 37° NE 23:46:48 36° NE
